Time,TemperatureF,DewpointF,PressureIn,WindDirection,WindDirectionDegrees,WindSpeedMPH,WindSpeedGustMPH,Humidity,HourlyPrecipIn,Conditions,Clouds,dailyrainin,SoftwareType,DateUTC
2013-07-10 00:00:00,69.4,68.2,30.04,SSE,158,3.9,5.8,96,0.00,-RA,,0.00,WeatherDisplay:10.37,2013-07-10 04:00:00,
2013-07-10 00:01:00,69.4,68.2,30.04,SSE,158,2.8,5.8,96,0.00,-RA,,0.00,WeatherDisplay:10.37,2013-07-10 04:01:00,
2013-07-10 00:04:00,69.4,68.2,30.03,SSE,158,3.3,4.6,96,0.00,-RA,,0.00,WeatherDisplay:10.37,2013-07-10 04:04:00,
2013-07-10 00:05:00,69.4,68.2,30.03,SSE,158,4.0,4.6,96,0.00,-RA,,0.00,WeatherDisplay:10.37,2013-07-10 04:05:00,
2013-07-10 00:06:00,69.4,68.2,30.03,SSE,158,2.6,4.6,96,0.00,-RA,,0.00,WeatherDisplay:10.37,2013-07-10 04:06:00,
2013-07-10 00:11:00,69.4,68.5,30.03,SSE,158,2.5,5.8,97,0.00,-RA,,0.00,WeatherDisplay:10.37,2013-07-10 04:11:00,
2013-07-10 00:16:00,69.4,68.5,30.03,SSE,158,3.2,5.8,97,0.00,-RA,,0.00,WeatherDisplay:10.37,2013-07-10 04:16:00,
2013-07-10 00:17:00,69.4,68.5,30.03,SSE,158,2.8,4.4,97,0.00,-RA,,0.00,WeatherDisplay:10.37,2013-07-10 04:17:00,
2013-07-10 00:22:00,69.4,68.5,30.03,SSE,158,1.9,4.6,97,0.00,-RA,,0.00,WeatherDisplay:10.37,2013-07-10 04:22:00,
2013-07-10 00:27:00,69.4,68.5,30.03,SSE,158,3.7,4.6,97,0.00,-RA,,0.00,WeatherDisplay:10.37,2013-07-10 04:27:00,
2013-07-10 00:32:00,69.6,68.7,30.03,SSE,158,4.5,5.8,97,0.00,-RA,,0.00,WeatherDisplay:10.37,2013-07-10 04:32:00,
2013-07-10 00:37:00,69.6,68.7,30.03,SSE,158,2.8,4.6,97,0.00,-RA,,0.00,WeatherDisplay:10.37,2013-07-10 04:37:00,
2013-07-10 00:42:00,69.6,68.7,30.03,SSE,158,2.8,4.6,97,0.00,-RA,,0.00,WeatherDisplay:10.37,2013-07-10 04:42:00,
2013-07-10 00:47:00,69.6,68.7,30.03,SSE,158,3.8,5.8,97,0.00,-RA,,0.00,WeatherDisplay:10.37,2013-07-10 04:47:00,
2013-07-10 00:53:00,69.6,68.7,30.03,WSW,248,4.2,6.1,97,0.00,-RA,,0.00,WeatherDisplay:10.37,2013-07-10 04:53:00,
2013-07-10 00:58:00,69.6,69.0,30.04,West,270,4.0,7.0,98,0.01,-RA,,0.01,WeatherDisplay:10.37,2013-07-10 04:58:00,
2013-07-10 01:03:00,69.6,69.0,30.04,West,270,0.5,4.6,98,0.02,-RA,,0.02,WeatherDisplay:10.37,2013-07-10 05:03:00,
2013-07-10 01:08:00,69.6,69.0,30.04,West,270,3.0,4.6,98,0.02,-RA,,0.02,WeatherDisplay:10.37,2013-07-10 05:08:00,
2013-07-10 01:13:00,69.4,69.1,30.04,South,180,4.6,6.1,99,0.03,-RA,,0.03,WeatherDisplay:10.37,2013-07-10 05:13:00,
2013-07-10 01:18:00,69.4,69.1,30.04,South,180,3.2,5.8,99,0.03,-RA,,0.03,WeatherDisplay:10.37,2013-07-10 05:18:00,
2013-07-10 01:23:00,69.4,69.1,30.04,South,180,3.2,5.8,99,0.04,-RA,,0.04,WeatherDisplay:10.37,2013-07-10 05:23:00,
2013-07-10 01:28:00,69.3,69.0,30.03,South,180,3.3,4.6,99,0.04,-RA,,0.04,WeatherDisplay:10.37,2013-07-10 05:28:00,
2013-07-10 01:33:00,69.3,69.0,30.03,South,180,3.4,4.6,99,0.04,-RA,,0.04,WeatherDisplay:10.37,2013-07-10 05:33:00,
2013-07-10 01:38:00,69.3,69.0,30.03,South,180,3.5,4.6,99,0.05,-RA,,0.05,WeatherDisplay:10.37,2013-07-10 05:38:00,
2013-07-10 01:40:00,68.1,68.1,29.91,South,180,0.0,3.0,100,0.05,RA,RA,0.10,WeatherDisplay:10.37,2013-07-10 05:40:00,
2013-07-10 01:43:00,69.3,69.0,30.03,SSE,158,5.1,7.0,99,0.05,-RA,,0.05,WeatherDisplay:10.37,2013-07-10 05:43:00,
2013-07-10 01:45:00,68.1,68.1,29.91,South,180,0.0,2.0,100,0.05,RA,RA,0.10,WeatherDisplay:10.37,2013-07-10 05:45:00,
2013-07-10 01:48:00,69.3,69.3,30.03,SSE,158,3.2,4.6,100,0.05,-RA,,0.05,WeatherDisplay:10.37,2013-07-10 05:48:00,
2013-07-10 01:50:00,68.1,68.1,29.91,South,180,0.0,2.0,100,0.00,RA,RA,0.10,WeatherDisplay:10.37,2013-07-10 05:50:00,
2013-07-10 01:53:00,69.3,69.3,30.03,SE,135,5.7,9.2,100,0.05,-RA,,0.05,WeatherDisplay:10.37,2013-07-10 05:53:00,
2013-07-10 01:55:00,68.1,68.1,29.91,South,180,0.0,2.0,100,0.00,CLR,CLR,0.10,WeatherDisplay:10.37,2013-07-10 05:55:00,
2013-07-10 01:58:00,69.3,69.3,30.03,SE,135,3.0,4.6,100,0.04,-RA,,0.05,WeatherDisplay:10.37,2013-07-10 05:58:00,
2013-07-10 02:00:00,68.1,68.1,29.91,South,180,0.0,2.0,100,0.00,CLR,CLR,0.10,WeatherDisplay:10.37,2013-07-10 06:00:00,
2013-07-10 02:03:00,69.3,69.3,30.03,SE,135,2.1,4.6,100,0.03,-RA,,0.05,WeatherDisplay:10.37,2013-07-10 06:03:00,
2013-07-10 02:05:00,68.1,68.1,29.91,South,180,0.0,0.0,100,0.00,CLR,CLR,0.10,WeatherDisplay:10.37,2013-07-10 06:05:00,
2013-07-10 02:08:00,69.3,69.3,30.02,SE,135,4.7,8.1,100,0.03,-RA,,0.05,WeatherDisplay:10.37,2013-07-10 06:08:00,
2013-07-10 02:10:00,68.1,68.1,29.91,South,180,0.0,0.0,100,0.00,CLR,CLR,0.10,WeatherDisplay:10.37,2013-07-10 06:10:00,
2013-07-10 02:13:00,69.3,69.3,30.02,SE,135,1.8,5.8,100,0.02,-RA,,0.05,WeatherDisplay:10.37,2013-07-10 06:13:00,
2013-07-10 02:15:00,67.1,67.1,29.91,South,180,0.0,0.0,100,0.00,CLR,CLR,0.10,WeatherDisplay:10.37,2013-07-10 06:15:00,
2013-07-10 02:18:00,69.3,69.3,30.02,SE,135,3.2,5.8,100,0.02,-RA,,0.05,WeatherDisplay:10.37,2013-07-10 06:18:00,
2013-07-10 02:20:00,67.1,67.1,29.91,South,180,0.0,0.0,100,0.00,CLR,CLR,0.10,WeatherDisplay:10.37,2013-07-10 06:20:00,
2013-07-10 02:23:00,69.3,69.3,30.02,SE,135,3.6,6.1,100,0.01,-RA,,0.05,WeatherDisplay:10.37,2013-07-10 06:23:00,
2013-07-10 02:25:00,68.1,68.1,29.91,South,180,0.0,3.0,100,0.01,RA,RA,0.11,WeatherDisplay:10.37,2013-07-10 06:25:00,
2013-07-10 02:28:00,69.3,69.3,30.01,SE,135,2.5,3.5,100,0.01,-RA,,0.05,WeatherDisplay:10.37,2013-07-10 06:28:00,
2013-07-10 02:30:00,68.1,68.1,29.91,South,180,0.0,3.0,100,0.01,RA,RA,0.11,WeatherDisplay:10.37,2013-07-10 06:30:00,
2013-07-10 02:33:00,69.3,69.3,30.01,West,270,3.2,4.6,100,0.01,-RA,,0.05,WeatherDisplay:10.37,2013-07-10 06:33:00,
2013-07-10 02:35:00,68.1,68.1,29.91,South,180,0.0,3.0,100,0.00,RA,RA,0.11,WeatherDisplay:10.37,2013-07-10 06:35:00,
2013-07-10 02:38:00,69.3,69.3,30.01,South,180,3.5,5.8,100,0.00,-RA,,0.05,WeatherDisplay:10.37,2013-07-10 06:38:00,
2013-07-10 02:40:00,68.1,68.1,29.94,NE,49,3.0,0.0,100,0.00,CLR,CLR,0.11,WeatherDisplay:10.37,2013-07-10 06:40:00,
2013-07-10 02:43:00,69.3,69.3,30.01,South,180,3.5,4.6,100,0.00,-RA,,0.05,WeatherDisplay:10.37,2013-07-10 06:43:00,
2013-07-10 02:45:00,68.1,68.1,29.94,NE,45,3.0,0.0,100,0.00,CLR,CLR,0.11,WeatherDisplay:10.37,2013-07-10 06:45:00,
2013-07-10 02:48:00,69.3,69.3,30.01,South,180,3.4,4.6,100,0.00,-RA,,0.05,WeatherDisplay:10.37,2013-07-10 06:48:00,
2013-07-10 02:50:00,68.1,68.1,29.91,NE,45,0.0,0.0,100,0.00,CLR,CLR,0.11,WeatherDisplay:10.37,2013-07-10 06:50:00,
2013-07-10 02:53:00,69.3,69.3,30.00,South,180,2.7,3.6,100,0.00,-RA,,0.05,WeatherDisplay:10.37,2013-07-10 06:53:00,
2013-07-10 02:55:00,68.1,68.1,29.91,NE,45,0.0,0.0,100,0.00,CLR,CLR,0.11,WeatherDisplay:10.37,2013-07-10 06:55:00,
2013-07-10 02:58:00,69.3,69.3,30.00,South,180,4.2,6.1,100,0.00,-RA,,0.05,WeatherDisplay:10.37,2013-07-10 06:58:00,
2013-07-10 03:00:00,68.1,68.1,29.91,NE,45,0.0,0.0,100,0.01,RA,RA,0.12,WeatherDisplay:10.37,2013-07-10 07:00:00,
2013-07-10 03:03:00,69.3,69.3,30.00,SSW,202,3.8,5.8,100,0.00,-RA,,0.05,WeatherDisplay:10.37,2013-07-10 07:03:00,
2013-07-10 03:05:00,68.1,68.1,29.91,NE,45,0.0,0.0,100,0.01,RA,RA,0.12,WeatherDisplay:10.37,2013-07-10 07:05:00,
2013-07-10 03:08:00,69.1,69.1,30.00,South,180,3.5,6.1,100,0.00,-RA,,0.05,WeatherDisplay:10.37,2013-07-10 07:08:00,
2013-07-10 03:10:00,68.1,68.1,29.91,NE,45,0.0,0.0,100,0.00,RA,RA,0.12,WeatherDisplay:10.37,2013-07-10 07:10:00,
2013-07-10 03:13:00,69.1,69.1,30.00,South,180,3.4,4.6,100,0.00,-RA,,0.05,WeatherDisplay:10.37,2013-07-10 07:13:00,
2013-07-10 03:15:00,68.1,68.1,29.94,NE,45,1.0,0.0,100,0.09,RA,RA,0.21,WeatherDisplay:10.37,2013-07-10 07:15:00,
2013-07-10 03:18:00,69.1,69.1,29.99,South,180,3.3,4.6,100,0.00,-RA,,0.05,WeatherDisplay:10.37,2013-07-10 07:18:00,
2013-07-10 03:20:00,68.1,68.1,29.94,NE,45,1.0,0.0,100,0.09,RA,RA,0.21,WeatherDisplay:10.37,2013-07-10 07:20:00,
2013-07-10 03:23:00,69.1,69.1,29.99,SSW,202,2.3,5.8,100,0.00,-RA,,0.05,WeatherDisplay:10.37,2013-07-10 07:23:00,
2013-07-10 03:25:00,68.1,68.1,29.94,NE,45,0.0,0.0,100,0.04,RA,RA,0.25,WeatherDisplay:10.37,2013-07-10 07:25:00,
2013-07-10 03:28:00,69.1,69.1,29.99,SSW,202,1.8,3.5,100,0.00,-RA,,0.05,WeatherDisplay:10.37,2013-07-10 07:28:00,
2013-07-10 03:30:00,68.1,68.1,29.94,NE,45,0.0,0.0,100,0.04,RA,RA,0.25,WeatherDisplay:10.37,2013-07-10 07:30:00,
2013-07-10 03:33:00,69.1,69.1,29.99,South,180,1.1,4.6,100,0.00,-RA,,0.05,WeatherDisplay:10.37,2013-07-10 07:33:00,
2013-07-10 03:35:00,68.1,68.1,29.94,NE,45,0.0,0.0,100,0.00,RA,RA,0.25,WeatherDisplay:10.37,2013-07-10 07:35:00,
2013-07-10 03:38:00,69.1,69.1,29.99,South,180,2.3,2.7,100,0.00,-RA,,0.05,WeatherDisplay:10.37,2013-07-10 07:38:00,
2013-07-10 03:40:00,68.1,68.1,29.94,NE,45,0.0,0.0,100,0.01,RA,RA,0.26,WeatherDisplay:10.37,2013-07-10 07:40:00,
2013-07-10 03:43:00,68.9,68.9,29.99,South,180,3.0,4.6,100,0.00,-RA,,0.05,WeatherDisplay:10.37,2013-07-10 07:43:00,
2013-07-10 03:45:00,68.1,68.1,29.94,NE,45,0.0,0.0,100,0.01,RA,RA,0.26,WeatherDisplay:10.37,2013-07-10 07:45:00,
2013-07-10 03:48:00,68.9,68.9,29.99,South,180,3.0,3.6,100,0.00,-RA,,0.05,WeatherDisplay:10.37,2013-07-10 07:48:00,
2013-07-10 03:50:00,68.1,68.1,29.94,NE,45,0.0,0.0,100,0.01,RA,RA,0.27,WeatherDisplay:10.37,2013-07-10 07:50:00,
2013-07-10 03:53:00,68.9,68.9,29.98,South,180,3.6,4.4,100,0.00,-RA,,0.05,WeatherDisplay:10.37,2013-07-10 07:53:00,
2013-07-10 03:55:00,68.1,68.1,29.94,NE,45,0.0,0.0,100,0.01,RA,RA,0.27,WeatherDisplay:10.37,2013-07-10 07:55:00,
2013-07-10 03:58:00,68.9,68.9,29.98,South,180,0.0,2.3,100,0.00,-RA,,0.05,WeatherDisplay:10.37,2013-07-10 07:58:00,
2013-07-10 04:00:00,69.1,69.1,29.94,NE,45,0.0,0.0,100,0.00,RA,RA,0.27,WeatherDisplay:10.37,2013-07-10 08:00:00,
2013-07-10 04:04:00,68.9,68.9,29.98,South,180,1.4,3.6,100,0.00,-RA,,0.05,WeatherDisplay:10.37,2013-07-10 08:04:00,
2013-07-10 04:05:00,69.1,69.1,29.94,NE,45,0.0,0.0,100,0.00,CLR,CLR,0.27,WeatherDisplay:10.37,2013-07-10 08:05:00,
2013-07-10 04:09:00,68.9,68.9,29.98,South,180,0.0,2.3,100,0.00,-RA,,0.05,WeatherDisplay:10.37,2013-07-10 08:09:00,
2013-07-10 04:10:00,69.1,69.1,29.94,NE,45,0.0,0.0,100,0.00,CLR,CLR,0.27,WeatherDisplay:10.37,2013-07-10 08:10:00,
2013-07-10 04:14:00,68.9,68.9,29.98,South,180,0.0,0.0,100,0.00,-RA,,0.05,WeatherDisplay:10.37,2013-07-10 08:14:00,
2013-07-10 04:15:00,69.1,69.1,29.94,NE,45,0.0,0.0,100,0.01,RA,RA,0.28,WeatherDisplay:10.37,2013-07-10 08:15:00,
2013-07-10 04:19:00,68.9,68.9,29.98,South,180,0.0,0.0,100,0.00,-RA,,0.05,WeatherDisplay:10.37,2013-07-10 08:19:00,
2013-07-10 04:20:00,69.1,69.1,29.94,NE,45,0.0,0.0,100,0.01,RA,RA,0.28,WeatherDisplay:10.37,2013-07-10 08:20:00,
2013-07-10 04:24:00,68.9,68.9,29.98,South,180,2.4,4.4,100,0.00,-RA,,0.05,WeatherDisplay:10.37,2013-07-10 08:24:00,
2013-07-10 04:25:00,69.1,69.1,29.94,NE,45,0.0,0.0,100,0.03,RA,RA,0.31,WeatherDisplay:10.37,2013-07-10 08:25:00,
2013-07-10 04:29:00,68.7,68.7,29.98,South,180,0.0,0.0,100,0.00,-RA,,0.05,WeatherDisplay:10.37,2013-07-10 08:29:00,
2013-07-10 04:30:00,69.1,69.1,29.94,NE,45,0.0,0.0,100,0.03,RA,RA,0.31,WeatherDisplay:10.37,2013-07-10 08:30:00,
2013-07-10 04:34:00,68.7,68.7,29.98,South,180,0.0,3.5,100,0.00,-RA,,0.05,WeatherDisplay:10.37,2013-07-10 08:34:00,
2013-07-10 04:35:00,69.1,69.1,29.94,NE,45,0.0,0.0,100,0.00,RA,RA,0.31,WeatherDisplay:10.37,2013-07-10 08:35:00,
2013-07-10 04:39:00,68.7,68.7,29.98,South,180,0.0,0.0,100,0.00,-RA,,0.05,WeatherDisplay:10.37,2013-07-10 08:39:00,
2013-07-10 04:40:00,69.1,69.1,29.94,NE,45,0.0,0.0,100,0.00,CLR,CLR,0.31,WeatherDisplay:10.37,2013-07-10 08:40:00,
2013-07-10 04:44:00,68.7,68.7,29.98,South,180,2.4,2.7,100,0.00,-RA,,0.05,WeatherDisplay:10.37,2013-07-10 08:44:00,
2013-07-10 04:45:00,69.1,69.1,29.94,NE,45,0.0,0.0,100,0.00,CLR,CLR,0.31,WeatherDisplay:10.37,2013-07-10 08:45:00,
2013-07-10 04:49:00,68.7,68.7,29.98,South,180,0.0,0.0,100,0.00,-RA,,0.05,WeatherDisplay:10.37,2013-07-10 08:49:00,
2013-07-10 04:50:00,69.1,69.1,29.94,NE,45,0.0,0.0,100,0.00,CLR,CLR,0.31,WeatherDisplay:10.37,2013-07-10 08:50:00,
2013-07-10 04:54:00,68.7,68.7,29.98,South,180,1.7,4.6,100,0.00,-RA,,0.05,WeatherDisplay:10.37,2013-07-10 08:54:00,
2013-07-10 04:55:00,69.1,69.1,29.94,NE,45,0.0,0.0,100,0.00,CLR,CLR,0.31,WeatherDisplay:10.37,2013-07-10 08:55:00,
2013-07-10 04:59:00,68.7,68.7,29.98,South,180,2.4,3.6,100,0.00,-RA,,0.05,WeatherDisplay:10.37,2013-07-10 08:59:00,
2013-07-10 05:00:00,68.1,68.1,29.97,NE,45,6.0,6.0,100,0.03,RA,RA,0.34,WeatherDisplay:10.37,2013-07-10 09:00:00,
2013-07-10 05:05:00,68.9,68.9,29.97,South,180,1.0,4.0,100,0.00,-RA,-RA,0.05,WeatherDisplay:10.37,2013-07-10 09:05:00,
2013-07-10 05:10:00,68.9,68.9,29.97,South,180,0.3,2.7,100,0.00,-RA,,0.05,WeatherDisplay:10.37,2013-07-10 09:10:00,
2013-07-10 05:15:00,68.9,68.9,29.97,South,180,0.0,0.0,100,0.00,-RA,,0.05,WeatherDisplay:10.37,2013-07-10 09:15:00,
2013-07-10 05:20:00,68.9,68.9,29.97,South,180,0.0,0.0,100,0.00,-RA,,0.05,WeatherDisplay:10.37,2013-07-10 09:20:00,
2013-07-10 05:25:00,68.9,68.9,29.97,South,180,0.6,2.7,100,0.00,-RA,,0.05,WeatherDisplay:10.37,2013-07-10 09:25:00,
2013-07-10 05:30:00,66.1,65.5,29.94,NNW,327,0.0,0.0,98,0.24,RA,RA,0.65,WeatherDisplay:10.37,2013-07-10 09:30:00,
2013-07-10 05:31:00,68.9,68.9,29.97,South,180,0.0,0.0,100,0.00,-RA,,0.05,WeatherDisplay:10.37,2013-07-10 09:31:00,
2013-07-10 05:35:00,66.1,65.5,29.94,NW,315,0.0,0.0,98,0.00,RA,RA,0.65,WeatherDisplay:10.37,2013-07-10 09:35:00,
2013-07-10 05:36:00,68.9,68.9,29.97,South,180,1.3,2.7,100,0.00,-RA,,0.05,WeatherDisplay:10.37,2013-07-10 09:36:00,
2013-07-10 05:40:00,67.1,66.8,29.94,NW,315,0.0,0.0,99,0.00,CLR,CLR,0.65,WeatherDisplay:10.37,2013-07-10 09:40:00,
2013-07-10 05:45:00,67.1,66.8,29.94,NW,315,0.0,0.0,99,0.00,CLR,CLR,0.65,WeatherDisplay:10.37,2013-07-10 09:45:00,
2013-07-10 05:50:00,68.1,67.5,29.94,NW,315,0.0,0.0,98,0.00,CLR,CLR,0.65,WeatherDisplay:10.37,2013-07-10 09:50:00,
2013-07-10 05:55:00,68.1,67.5,29.94,NW,315,0.0,0.0,98,0.00,CLR,CLR,0.65,WeatherDisplay:10.37,2013-07-10 09:55:00,
2013-07-10 06:00:00,69.1,68.2,29.94,NW,315,0.0,3.0,97,0.00,CLR,CLR,0.65,WeatherDisplay:10.37,2013-07-10 10:00:00,
2013-07-10 06:05:00,69.1,68.2,29.94,NW,315,0.0,3.0,97,0.00,CLR,CLR,0.65,WeatherDisplay:10.37,2013-07-10 10:05:00,
2013-07-10 06:10:00,69.1,68.2,29.94,NW,315,0.0,3.0,97,0.00,CLR,CLR,0.65,WeatherDisplay:10.37,2013-07-10 10:10:00,
2013-07-10 06:15:00,70.1,68.3,29.94,NW,315,2.0,3.0,94,0.00,CLR,CLR,0.65,WeatherDisplay:10.37,2013-07-10 10:15:00,
2013-07-10 06:20:00,70.1,68.3,29.94,NW,315,2.0,0.0,94,0.00,CLR,CLR,0.65,WeatherDisplay:10.37,2013-07-10 10:20:00,
2013-07-10 06:25:00,71.1,69.0,29.94,NNW,333,3.0,7.0,93,0.00,CLR,CLR,0.65,WeatherDisplay:10.37,2013-07-10 10:25:00,
2013-07-10 06:30:00,71.1,69.0,29.94,NNE,26,3.0,7.0,93,0.00,CLR,CLR,0.65,WeatherDisplay:10.37,2013-07-10 10:30:00,
2013-07-10 06:35:00,71.1,69.0,29.94,NE,45,3.0,7.0,93,0.00,CLR,CLR,0.65,WeatherDisplay:10.37,2013-07-10 10:35:00,
2013-07-10 06:40:00,68.1,66.6,29.94,ENE,62,8.0,8.0,95,0.00,CLR,CLR,0.65,WeatherDisplay:10.37,2013-07-10 10:40:00,
2013-07-10 06:45:00,68.1,66.6,29.94,ENE,68,8.0,8.0,95,0.00,CLR,CLR,0.65,WeatherDisplay:10.37,2013-07-10 10:45:00,
2013-07-10 06:50:00,68.1,66.9,29.97,ENE,64,5.0,8.0,96,0.00,CLR,CLR,0.65,WeatherDisplay:10.37,2013-07-10 10:50:00,
2013-07-10 06:55:00,68.1,66.9,29.97,NE,52,5.0,7.0,96,0.00,CLR,CLR,0.65,WeatherDisplay:10.37,2013-07-10 10:55:00,
2013-07-10 07:00:00,66.1,65.2,29.97,NE,50,5.0,7.0,97,0.18,RA,RA,0.83,WeatherDisplay:10.37,2013-07-10 11:00:00,
2013-07-10 07:05:00,66.1,65.2,29.97,ENE,74,5.0,7.0,97,0.18,RA,RA,0.83,WeatherDisplay:10.37,2013-07-10 11:05:00,
2013-07-10 07:10:00,66.1,65.2,29.97,East,90,5.0,7.0,97,0.00,RA,RA,0.83,WeatherDisplay:10.37,2013-07-10 11:10:00,
2013-07-10 07:15:00,65.1,64.8,29.94,ESE,107,2.0,7.0,99,0.17,RA,RA,1.00,WeatherDisplay:10.37,2013-07-10 11:15:00,
2013-07-10 07:20:00,65.1,64.8,29.94,SW,214,2.0,5.0,99,0.17,RA,RA,1.00,WeatherDisplay:10.37,2013-07-10 11:20:00,
2013-07-10 07:25:00,66.1,66.1,29.94,SW,234,2.0,5.0,100,0.01,RA,RA,1.01,WeatherDisplay:10.37,2013-07-10 11:25:00,
2013-07-10 07:30:00,66.1,66.1,29.94,WSW,258,2.0,5.0,100,0.01,RA,RA,1.01,WeatherDisplay:10.37,2013-07-10 11:30:00,
2013-07-10 07:35:00,66.1,66.1,29.94,West,270,2.0,5.0,100,0.00,RA,RA,1.01,WeatherDisplay:10.37,2013-07-10 11:35:00,
2013-07-10 07:40:00,66.1,65.8,29.94,West,270,1.0,0.0,99,0.00,CLR,CLR,1.01,WeatherDisplay:10.37,2013-07-10 11:40:00,
2013-07-10 07:50:00,67.1,66.8,29.94,West,270,2.0,2.0,99,0.00,CLR,CLR,1.01,WeatherDisplay:10.37,2013-07-10 11:50:00,
2013-07-10 07:55:00,67.1,66.8,29.94,West,270,2.0,2.0,99,0.00,CLR,CLR,1.01,WeatherDisplay:10.37,2013-07-10 11:55:00,
2013-07-10 12:00:00,69.4,68.5,29.94,West,270,1.4,8.3,97,0.36,-RA,,1.01,WeatherDisplay:10.37,2013-07-10 16:00:00,
2013-07-10 12:05:00,70.2,68.7,29.98,West,270,3.4,4.6,95,0.18,BKN,,1.01,WeatherDisplay:10.37,2013-07-10 16:05:00,
2013-07-10 12:10:00,70.2,69.0,29.98,West,270,2.2,4.6,96,0.18,BKN,,1.01,WeatherDisplay:10.37,2013-07-10 16:10:00,
2013-07-10 12:15:00,70.5,68.7,29.97,West,270,2.6,4.6,94,0.01,BKN,,1.01,WeatherDisplay:10.37,2013-07-10 16:15:00,
2013-07-10 12:20:00,70.5,69.0,29.97,West,270,3.1,4.6,95,0.01,BKN,,1.01,WeatherDisplay:10.37,2013-07-10 16:20:00,
2013-07-10 12:25:00,71.8,70.3,29.97,West,270,1.5,3.5,95,0.00,BKN,,1.01,WeatherDisplay:10.37,2013-07-10 16:25:00,
2013-07-10 12:30:00,72.7,70.6,29.97,West,270,2.4,5.8,93,0.00,BKN,,1.01,WeatherDisplay:10.37,2013-07-10 16:30:00,
2013-07-10 12:35:00,73.4,70.6,29.97,West,270,5.3,6.1,91,0.00,BKN,,1.01,WeatherDisplay:10.37,2013-07-10 16:35:00,
2013-07-10 12:40:00,75.4,71.9,29.96,SSW,202,4.2,5.8,89,0.00,BKN,,1.01,WeatherDisplay:10.37,2013-07-10 16:40:00,
2013-07-10 12:41:00,75.7,71.9,29.96,SSW,202,3.8,5.8,88,0.00,BKN,,1.01,WeatherDisplay:10.37,2013-07-10 16:41:00,
2013-07-10 12:46:00,75.9,71.8,29.96,WSW,248,4.7,6.1,87,0.00,BKN,,1.01,WeatherDisplay:10.37,2013-07-10 16:46:00,
2013-07-10 12:51:00,76.6,71.4,29.95,WSW,248,4.8,6.1,84,0.00,BKN,,1.01,WeatherDisplay:10.37,2013-07-10 16:51:00,
2013-07-10 12:56:00,76.5,71.3,29.95,WSW,248,6.6,7.8,84,0.00,BKN,,1.01,WeatherDisplay:10.37,2013-07-10 16:56:00,
2013-07-10 13:02:00,78.3,72.3,29.95,South,180,4.7,6.1,82,0.00,BKN,,1.01,WeatherDisplay:10.37,2013-07-10 17:02:00,
2013-07-10 13:07:00,79.2,72.5,29.93,SSE,158,7.1,9.2,80,0.00,BKN,,1.01,WeatherDisplay:10.37,2013-07-10 17:07:00,
2013-07-10 13:12:00,79.2,72.9,29.93,SSE,158,3.7,5.8,81,0.00,BKN,,1.01,WeatherDisplay:10.37,2013-07-10 17:12:00,
2013-07-10 13:17:00,79.2,72.9,29.93,SW,225,4.8,8.1,81,0.00,BKN,,1.01,WeatherDisplay:10.37,2013-07-10 17:17:00,
2013-07-10 13:22:00,79.3,73.0,29.93,SSE,158,4.4,5.8,81,0.00,BKN,,1.01,WeatherDisplay:10.37,2013-07-10 17:22:00,
2013-07-10 13:27:00,81.1,74.7,29.92,SSE,158,4.6,6.1,81,0.00,BKN,,1.01,WeatherDisplay:10.37,2013-07-10 17:27:00,
2013-07-10 13:32:00,82.0,75.2,29.92,SW,225,4.9,6.1,80,0.00,BKN,,1.01,WeatherDisplay:10.37,2013-07-10 17:32:00,
2013-07-10 13:37:00,82.9,76.1,29.92,SW,225,3.8,5.8,80,0.00,BKN,,1.01,WeatherDisplay:10.37,2013-07-10 17:37:00,
2013-07-10 13:42:00,82.6,75.0,29.93,SSE,158,5.7,9.2,78,0.00,BKN,,1.01,WeatherDisplay:10.37,2013-07-10 17:42:00,
2013-07-10 13:47:00,82.6,75.0,29.93,SE,135,5.4,7.0,78,0.00,BKN,,1.01,WeatherDisplay:10.37,2013-07-10 17:47:00,
2013-07-10 13:52:00,83.8,75.4,29.92,West,270,6.1,9.5,76,0.00,BKN,,1.01,WeatherDisplay:10.37,2013-07-10 17:52:00,
2013-07-10 13:57:00,84.4,76.0,29.92,West,270,6.0,9.2,76,0.00,BKN,,1.01,WeatherDisplay:10.37,2013-07-10 17:57:00,
2013-07-10 14:02:00,84.0,75.6,29.92,South,180,7.7,9.5,76,0.00,BKN,,1.01,WeatherDisplay:10.37,2013-07-10 18:02:00,
2013-07-10 14:07:00,84.0,74.8,29.92,WSW,248,6.8,9.5,74,0.00,BKN,,1.01,WeatherDisplay:10.37,2013-07-10 18:07:00,
2013-07-10 14:12:00,84.7,74.7,29.92,South,180,6.3,9.2,72,0.00,BKN,,1.01,WeatherDisplay:10.37,2013-07-10 18:12:00,
2013-07-10 14:17:00,84.9,75.3,29.91,SW,225,4.9,7.0,73,0.00,BKN,,1.01,WeatherDisplay:10.37,2013-07-10 18:17:00,
2013-07-10 14:22:00,85.3,75.2,29.91,South,180,6.5,18.4,72,0.00,BKN,,1.01,WeatherDisplay:10.37,2013-07-10 18:22:00,
2013-07-10 14:27:00,85.5,75.9,29.91,South,180,5.9,9.2,73,0.00,BKN,,1.01,WeatherDisplay:10.37,2013-07-10 18:27:00,
2013-07-10 14:32:00,85.1,75.1,29.91,ESE,112,7.3,15.4,72,0.00,BKN,,1.01,WeatherDisplay:10.37,2013-07-10 18:32:00,
2013-07-10 14:37:00,85.6,75.9,29.91,South,180,4.9,9.2,73,0.00,BKN,,1.01,WeatherDisplay:10.37,2013-07-10 18:37:00,
2013-07-10 14:42:00,84.7,75.1,29.90,SSE,158,6.1,10.4,73,0.00,BKN,,1.01,WeatherDisplay:10.37,2013-07-10 18:42:00,
2013-07-10 14:47:00,84.6,74.6,29.90,South,180,7.3,12.7,72,0.00,BKN,,1.01,WeatherDisplay:10.37,2013-07-10 18:47:00,
2013-07-10 14:52:00,85.8,76.1,29.89,North,360,6.1,10.4,73,0.00,BKN,,1.01,WeatherDisplay:10.37,2013-07-10 18:52:00,
2013-07-10 14:57:00,86.2,76.1,29.89,SW,225,5.1,8.1,72,0.00,BKN,,1.01,WeatherDisplay:10.37,2013-07-10 18:57:00,
2013-07-10 15:02:00,86.0,75.5,29.89,SSE,158,3.9,9.2,71,0.00,BKN,,1.01,WeatherDisplay:10.37,2013-07-10 19:02:00,
2013-07-10 15:07:00,86.4,75.9,29.89,SSW,202,6.1,9.5,71,0.00,BKN,,1.01,WeatherDisplay:10.37,2013-07-10 19:07:00,
2013-07-10 15:12:00,85.8,74.9,29.89,WSW,248,6.8,10.4,70,0.00,BKN,,1.01,WeatherDisplay:10.37,2013-07-10 19:12:00,
2013-07-10 15:17:00,85.5,74.6,29.87,SSW,202,9.2,13.8,70,0.00,BKN,,1.01,WeatherDisplay:10.37,2013-07-10 19:17:00,
2013-07-10 15:22:00,85.6,74.7,29.87,WNW,292,7.4,10.4,70,0.00,BKN,,1.01,WeatherDisplay:10.37,2013-07-10 19:22:00,
2013-07-10 15:27:00,86.2,74.8,29.86,SSW,202,8.1,12.9,69,0.00,BKN,,1.01,WeatherDisplay:10.37,2013-07-10 19:27:00,
2013-07-10 15:32:00,85.5,74.6,29.86,SE,135,7.9,11.2,70,0.00,BKN,,1.01,WeatherDisplay:10.37,2013-07-10 19:32:00,
2013-07-10 15:37:00,84.7,74.7,29.86,South,180,5.0,6.9,72,0.00,BKN,,1.01,WeatherDisplay:10.37,2013-07-10 19:37:00,
2013-07-10 15:42:00,84.7,74.3,29.85,SSE,158,6.8,9.2,71,0.00,BKN,,1.01,WeatherDisplay:10.37,2013-07-10 19:42:00,
2013-07-10 15:47:00,84.0,74.0,29.85,SW,225,5.1,8.1,72,0.00,BKN,,1.01,WeatherDisplay:10.37,2013-07-10 19:47:00,
2013-07-10 15:52:00,84.0,74.0,29.85,SSE,158,6.7,9.2,72,0.00,BKN,,1.01,WeatherDisplay:10.37,2013-07-10 19:52:00,
2013-07-10 15:57:00,85.5,74.6,29.85,West,270,4.3,6.9,70,0.00,BKN,,1.01,WeatherDisplay:10.37,2013-07-10 19:57:00,
2013-07-10 16:02:00,86.0,75.5,29.85,SW,225,6.0,7.0,71,0.00,BKN,,1.01,WeatherDisplay:10.37,2013-07-10 20:02:00,
2013-07-10 16:07:00,85.5,74.6,29.85,SE,135,6.8,9.2,70,0.00,BKN,,1.01,WeatherDisplay:10.37,2013-07-10 20:07:00,
2013-07-10 16:12:00,84.6,74.2,29.85,SE,135,8.6,10.4,71,0.00,BKN,,1.01,WeatherDisplay:10.37,2013-07-10 20:12:00,
2013-07-10 16:17:00,84.7,74.7,29.86,WSW,248,5.9,9.2,72,0.00,BKN,,1.01,WeatherDisplay:10.37,2013-07-10 20:17:00,
2013-07-10 16:22:00,84.9,74.4,29.86,SSW,202,5.4,6.1,71,0.00,BKN,,1.01,WeatherDisplay:10.37,2013-07-10 20:22:00,
2013-07-10 16:27:00,84.9,74.4,29.86,WSW,248,6.7,7.0,71,0.00,BKN,,1.01,WeatherDisplay:10.37,2013-07-10 20:27:00,
2013-07-10 16:32:00,84.7,74.7,29.86,SW,225,4.8,8.1,72,0.00,BKN,,1.01,WeatherDisplay:10.37,2013-07-10 20:32:00,
2013-07-10 16:37:00,84.7,74.7,29.86,SE,135,3.3,5.8,72,0.00,BKN,,1.01,WeatherDisplay:10.37,2013-07-10 20:37:00,
2013-07-10 16:42:00,84.6,74.6,29.85,West,270,4.3,9.2,72,0.00,BKN,,1.01,WeatherDisplay:10.37,2013-07-10 20:42:00,
2013-07-10 16:47:00,84.2,74.2,29.85,WSW,248,4.3,8.1,72,0.00,BKN,,1.01,WeatherDisplay:10.37,2013-07-10 20:47:00,
2013-07-10 16:52:00,84.0,73.6,29.85,SSW,202,3.8,9.2,71,0.00,BKN,,1.01,WeatherDisplay:10.37,2013-07-10 20:52:00,
2013-07-10 16:57:00,84.7,74.3,29.85,SW,225,5.7,7.0,71,0.00,BKN,,1.01,WeatherDisplay:10.37,2013-07-10 20:57:00,
2013-07-10 17:02:00,85.1,73.8,29.85,SSE,158,8.9,12.1,69,0.00,BKN,,1.01,WeatherDisplay:10.37,2013-07-10 21:02:00,
2013-07-10 17:07:00,84.7,73.8,29.84,SSE,158,5.6,6.1,70,0.00,BKN,,1.01,WeatherDisplay:10.37,2013-07-10 21:07:00,
2013-07-10 17:12:00,84.9,73.6,29.84,SW,225,4.7,9.2,69,0.00,BKN,,1.01,WeatherDisplay:10.37,2013-07-10 21:12:00,
2013-07-10 17:17:00,84.6,73.7,29.84,SW,225,5.3,6.1,70,0.00,BKN,,1.01,WeatherDisplay:10.37,2013-07-10 21:17:00,
2013-07-10 17:22:00,84.0,73.6,29.84,SW,225,5.3,8.1,71,0.00,BKN,,1.01,WeatherDisplay:10.37,2013-07-10 21:22:00,
2013-07-10 17:27:00,83.8,73.0,29.85,West,270,5.1,6.9,70,0.00,BKN,,1.01,WeatherDisplay:10.37,2013-07-10 21:27:00,
2013-07-10 17:32:00,83.5,73.5,29.85,SW,225,4.0,5.8,72,0.00,BKN,,1.01,WeatherDisplay:10.37,2013-07-10 21:32:00,
2013-07-10 17:38:00,83.7,73.7,29.85,SSE,158,2.7,2.7,72,0.00,BKN,,1.01,WeatherDisplay:10.37,2013-07-10 21:38:00,
2013-07-10 17:43:00,83.3,73.7,29.87,SSE,158,4.1,6.9,73,0.00,BKN,,1.01,WeatherDisplay:10.37,2013-07-10 21:43:00,
2013-07-10 17:48:00,83.3,73.7,29.87,SSE,158,4.5,7.0,73,0.00,BKN,,1.01,WeatherDisplay:10.37,2013-07-10 21:48:00,
2013-07-10 17:53:00,83.3,73.7,29.87,South,180,4.2,9.2,73,0.00,BKN,,1.01,WeatherDisplay:10.37,2013-07-10 21:53:00,
2013-07-10 17:58:00,83.3,73.7,29.87,West,270,3.7,5.8,73,0.00,BKN,,1.01,WeatherDisplay:10.37,2013-07-10 21:58:00,
2013-07-10 18:03:00,83.5,73.9,29.87,SSE,158,5.0,7.0,73,0.00,BKN,,1.01,WeatherDisplay:10.37,2013-07-10 22:03:00,
2013-07-10 18:08:00,83.7,74.1,29.87,WSW,248,3.3,3.6,73,0.00,BKN,,1.01,WeatherDisplay:10.37,2013-07-10 22:08:00,
2013-07-10 18:13:00,83.8,74.2,29.87,SW,225,3.5,5.8,73,0.00,BKN,,1.01,WeatherDisplay:10.37,2013-07-10 22:13:00,
2013-07-10 18:18:00,83.5,73.9,29.86,South,180,4.4,6.1,73,0.00,BKN,,1.01,WeatherDisplay:10.37,2013-07-10 22:18:00,
2013-07-10 18:23:00,82.9,73.8,29.86,SSE,158,5.4,6.1,74,0.00,BKN,,1.01,WeatherDisplay:10.37,2013-07-10 22:23:00,
2013-07-10 18:28:00,82.9,73.8,29.86,South,180,4.6,7.0,74,0.00,BKN,,1.01,WeatherDisplay:10.37,2013-07-10 22:28:00,
2013-07-10 18:33:00,82.8,74.1,29.86,South,180,2.7,4.6,75,0.00,BKN,,1.01,WeatherDisplay:10.37,2013-07-10 22:33:00,
2013-07-10 18:38:00,82.6,74.3,29.86,South,180,3.2,5.8,76,0.00,BKN,,1.01,WeatherDisplay:10.37,2013-07-10 22:38:00,
2013-07-10 18:43:00,82.4,73.7,29.86,West,270,3.7,8.1,75,0.00,BKN,,1.01,WeatherDisplay:10.37,2013-07-10 22:43:00,
2013-07-10 18:48:00,82.4,73.7,29.86,South,180,3.9,5.3,75,0.00,BKN,,1.01,WeatherDisplay:10.37,2013-07-10 22:48:00,
2013-07-10 18:53:00,82.0,73.7,29.86,South,180,4.0,6.1,76,0.00,BKN,,1.01,WeatherDisplay:10.37,2013-07-10 22:53:00,
2013-07-10 18:58:00,81.9,74.0,29.86,WSW,248,3.0,3.6,77,0.00,BKN,,1.01,WeatherDisplay:10.37,2013-07-10 22:58:00,
2013-07-10 19:03:00,81.9,74.4,29.89,NNE,22,8.2,12.9,78,0.00,BKN,,1.01,WeatherDisplay:10.37,2013-07-10 23:03:00,
2013-07-10 19:08:00,78.3,66.9,29.89,NNE,22,13.5,23.0,68,0.00,BKN,,1.01,WeatherDisplay:10.37,2013-07-10 23:08:00,
2013-07-10 19:13:00,75.0,66.5,29.89,NNE,22,22.7,31.1,75,0.00,BKN,,1.01,WeatherDisplay:10.37,2013-07-10 23:13:00,
2013-07-10 19:18:00,72.0,65.5,29.91,NNE,22,14.2,21.9,80,0.00,BKN,,1.01,WeatherDisplay:10.37,2013-07-10 23:18:00,
2013-07-10 19:23:00,70.7,66.0,29.91,NNE,22,9.4,14.6,85,0.01,RA,,1.02,WeatherDisplay:10.37,2013-07-10 23:23:00,
2013-07-10 19:28:00,70.0,66.3,29.94,West,270,6.4,11.5,88,0.02,RA,,1.05,WeatherDisplay:10.37,2013-07-10 23:28:00,
2013-07-10 19:33:00,70.0,66.6,29.94,West,270,2.7,2.7,89,0.08,-RA,,1.10,WeatherDisplay:10.37,2013-07-10 23:33:00,
2013-07-10 19:38:00,69.1,66.7,29.94,East,90,4.8,8.1,92,0.16,-RA,,1.18,WeatherDisplay:10.37,2013-07-10 23:38:00,
2013-07-10 19:43:00,68.9,67.1,29.96,East,90,3.2,4.4,94,0.22,-RA,,1.24,WeatherDisplay:10.37,2013-07-10 23:43:00,
2013-07-10 19:48:00,68.7,67.2,29.96,East,90,1.4,3.5,95,0.26,-RA,,1.28,WeatherDisplay:10.37,2013-07-10 23:48:00,
2013-07-10 19:53:00,68.7,67.2,29.96,East,90,3.4,3.6,95,0.28,-RA,,1.30,WeatherDisplay:10.37,2013-07-10 23:53:00,
2013-07-10 19:58:00,68.5,67.3,29.96,East,90,2.9,4.6,96,0.31,-RA,,1.32,WeatherDisplay:10.37,2013-07-10 23:58:00,
2013-07-10 20:03:00,68.2,67.0,29.95,East,90,5.2,6.1,96,0.33,-DZ,,1.34,WeatherDisplay:10.37,2013-07-11 00:03:00,
2013-07-10 20:08:00,68.0,66.8,29.95,East,90,3.2,4.4,96,0.36,-DZ,,1.37,WeatherDisplay:10.37,2013-07-11 00:08:00,
2013-07-10 20:13:00,68.0,66.8,29.95,East,90,1.8,3.6,96,0.37,-DZ,,1.39,WeatherDisplay:10.37,2013-07-11 00:13:00,
2013-07-10 20:18:00,67.8,66.6,29.95,East,90,4.3,5.3,96,0.39,-DZ,,1.40,WeatherDisplay:10.37,2013-07-11 00:18:00,
2013-07-10 20:23:00,67.5,66.3,29.95,East,90,5.2,7.0,96,0.39,-DZ,,1.41,WeatherDisplay:10.37,2013-07-11 00:23:00,
2013-07-10 20:28:00,67.5,66.3,29.96,East,90,4.9,5.8,96,0.39,-DZ,,1.42,WeatherDisplay:10.37,2013-07-11 00:28:00,
2013-07-10 20:33:00,67.3,66.1,29.96,East,90,4.0,4.6,96,0.34,-RA,,1.43,WeatherDisplay:10.37,2013-07-11 00:33:00,
2013-07-10 20:38:00,67.1,66.2,29.96,East,90,3.9,5.8,97,0.27,-RA,,1.44,WeatherDisplay:10.37,2013-07-11 00:38:00,
2013-07-10 20:43:00,67.1,65.9,29.96,East,90,0.0,0.0,96,0.23,-RA,,1.46,WeatherDisplay:10.37,2013-07-11 00:43:00,
2013-07-10 20:48:00,67.1,65.9,29.96,East,90,0.0,0.0,96,0.20,-RA,,1.47,WeatherDisplay:10.37,2013-07-11 00:48:00,
2013-07-10 20:53:00,67.1,66.2,29.95,East,90,0.2,2.3,97,0.20,-RA,,1.49,WeatherDisplay:10.37,2013-07-11 00:53:00,
2013-07-10 20:58:00,66.9,66.0,29.95,East,90,0.0,0.0,97,0.20,-RA,,1.51,WeatherDisplay:10.37,2013-07-11 00:58:00,
2013-07-10 21:03:00,66.9,66.3,29.95,East,90,0.0,0.0,98,0.19,-RA,,1.53,WeatherDisplay:10.37,2013-07-11 01:03:00,
2013-07-10 21:08:00,66.6,66.0,29.95,East,90,0.0,2.3,98,0.18,-RA,,1.55,WeatherDisplay:10.37,2013-07-11 01:08:00,
2013-07-10 21:13:00,66.6,66.0,29.95,East,90,1.5,2.7,98,0.18,-RA,,1.57,WeatherDisplay:10.37,2013-07-11 01:13:00,
2013-07-10 21:18:00,66.6,66.0,29.94,East,90,0.0,0.0,98,0.19,-RA,,1.58,WeatherDisplay:10.37,2013-07-11 01:18:00,
2013-07-10 21:23:00,66.6,66.0,29.94,East,90,1.3,3.6,98,0.19,-RA,,1.59,WeatherDisplay:10.37,2013-07-11 01:23:00,
2013-07-10 21:28:00,66.2,65.9,29.92,East,90,0.0,0.0,99,0.19,-RA,,1.60,WeatherDisplay:10.37,2013-07-11 01:28:00,
2013-07-10 21:33:00,66.2,65.9,29.92,East,90,0.0,3.5,99,0.18,-RA,,1.61,WeatherDisplay:10.37,2013-07-11 01:33:00,
2013-07-10 21:38:00,66.2,65.9,29.92,East,90,0.0,0.0,99,0.18,-RA,,1.61,WeatherDisplay:10.37,2013-07-11 01:38:00,
2013-07-10 21:43:00,66.2,65.9,29.92,East,90,3.6,4.6,99,0.16,-RA,,1.61,WeatherDisplay:10.37,2013-07-11 01:43:00,
2013-07-10 21:48:00,66.2,65.9,29.92,East,90,0.0,0.0,99,0.14,-RA,,1.61,WeatherDisplay:10.37,2013-07-11 01:48:00,
2013-07-10 21:51:00,66.2,65.9,29.92,East,90,1.0,2.3,99,0.14,-RA,,1.61,WeatherDisplay:10.37,2013-07-11 01:51:00,
2013-07-10 21:56:00,66.0,65.7,29.90,East,90,0.0,0.0,99,0.11,-RA,,1.61,WeatherDisplay:10.37,2013-07-11 01:56:00,
2013-07-10 22:01:00,66.0,65.7,29.90,East,90,2.8,3.6,99,0.09,-RA,,1.61,WeatherDisplay:10.37,2013-07-11 02:01:00,
2013-07-10 22:03:00,66.0,65.7,29.91,East,90,2.8,5.3,99,0.09,-RA,,1.61,WeatherDisplay:10.37,2013-07-11 02:03:00,
2013-07-10 22:08:00,66.0,66.0,29.91,East,90,0.0,0.0,100,0.07,-RA,,1.61,WeatherDisplay:10.37,2013-07-11 02:08:00,
2013-07-10 22:13:00,66.0,66.0,29.91,East,90,0.0,0.0,100,0.05,-RA,,1.61,WeatherDisplay:10.37,2013-07-11 02:13:00,
2013-07-10 22:18:00,66.0,66.0,29.92,East,90,0.5,2.3,100,0.03,-RA,,1.61,WeatherDisplay:10.37,2013-07-11 02:18:00,
2013-07-10 22:23:00,66.0,66.0,29.92,East,90,3.0,4.4,100,0.02,-RA,,1.61,WeatherDisplay:10.37,2013-07-11 02:23:00,
2013-07-10 22:28:00,66.2,66.2,29.92,East,90,1.8,4.6,100,0.01,-RA,,1.61,WeatherDisplay:10.37,2013-07-11 02:28:00,
2013-07-10 22:33:00,66.2,66.2,29.92,East,90,0.0,0.0,100,0.01,-RA,,1.61,WeatherDisplay:10.37,2013-07-11 02:33:00,
2013-07-10 22:38:00,66.0,66.0,29.92,East,90,0.0,0.0,100,0.00,-RA,,1.61,WeatherDisplay:10.37,2013-07-11 02:38:00,
2013-07-10 22:43:00,66.0,66.0,29.92,East,90,0.0,0.0,100,0.00,-RA,,1.61,WeatherDisplay:10.37,2013-07-11 02:43:00,
2013-07-10 22:48:00,66.0,66.0,29.92,East,90,0.0,0.0,100,0.00,-RA,,1.61,WeatherDisplay:10.37,2013-07-11 02:48:00,
2013-07-10 22:53:00,66.0,66.0,29.91,East,90,0.0,0.0,100,0.00,-RA,,1.61,WeatherDisplay:10.37,2013-07-11 02:53:00,
2013-07-10 22:58:00,65.8,65.8,29.91,East,90,0.0,0.0,100,0.00,-RA,,1.61,WeatherDisplay:10.37,2013-07-11 02:58:00,
2013-07-10 23:03:00,65.8,65.8,29.90,East,90,0.0,0.0,100,0.00,-RA,,1.61,WeatherDisplay:10.37,2013-07-11 03:03:00,
2013-07-10 23:08:00,65.8,65.8,29.90,East,90,0.0,0.0,100,0.00,-RA,,1.61,WeatherDisplay:10.37,2013-07-11 03:08:00,
2013-07-10 23:13:00,65.8,65.8,29.90,East,90,0.0,0.0,100,0.00,-RA,,1.61,WeatherDisplay:10.37,2013-07-11 03:13:00,
2013-07-10 23:18:00,66.0,66.0,29.90,East,90,0.0,0.0,100,0.00,-RA,,1.61,WeatherDisplay:10.37,2013-07-11 03:18:00,
2013-07-10 23:23:00,66.0,66.0,29.90,East,90,0.0,0.0,100,0.00,-RA,,1.61,WeatherDisplay:10.37,2013-07-11 03:23:00,
2013-07-10 23:28:00,66.0,66.0,29.90,East,90,0.0,0.0,100,0.00,-RA,,1.61,WeatherDisplay:10.37,2013-07-11 03:28:00,
2013-07-10 23:33:00,65.8,65.8,29.90,East,90,0.0,0.0,100,0.00,-RA,,1.61,WeatherDisplay:10.37,2013-07-11 03:33:00,
2013-07-10 23:38:00,65.8,65.8,29.90,East,90,0.0,0.0,100,0.00,-RA,,1.61,WeatherDisplay:10.37,2013-07-11 03:38:00,
2013-07-10 23:43:00,65.8,65.8,29.89,East,90,0.0,0.0,100,0.00,-RA,,1.61,WeatherDisplay:10.37,2013-07-11 03:43:00,
2013-07-10 23:48:00,65.8,65.8,29.89,East,90,0.0,0.0,100,0.00,-RA,,1.61,WeatherDisplay:10.37,2013-07-11 03:48:00,
2013-07-10 23:53:00,65.8,65.8,29.90,East,90,0.0,0.0,100,0.00,-RA,,1.61,WeatherDisplay:10.37,2013-07-11 03:53:00,
2013-07-10 23:58:00,65.7,65.7,29.90,East,90,0.0,0.0,100,0.00,-RA,,1.61,WeatherDisplay:10.37,2013-07-11 03:58:00,